Regional Weather Roundup
Issued by NWS

Current Version | Previous Version | Text Only | Print | Product List | Glossary Off
Versions: 1 2 3 4 5 6 7 8 9 10 11 12 13 14 15 16 17 18 19 20 21 22 23 24 25 26 27 28 29 30 31 32 33 34 35 36 37 38 39 40 41 42 43 44 45 46 47 48 49 50

000
ASUS44 KJAN 221910
RWRMS

MISSISSIPPI HOURLY WEATHER ROUNDUP
NATIONAL WEATHER SERVICE JACKSON MS
200 PM CDT TUE AUG 22 2017

NOTE: "FAIR: INDICATES FEW OR NO CLOUDS BELOW 12,000 FEET WITH NO
SIGNIFICANT WEATHER AND/OR OBSTRUCTIONS TO VISIBILITY.

MSZ001>002-007>008-010>013-018>021-025>028-034>036-222000-
NORTHWEST MISSISSIPPI

CITY           SKY/WX    TMP DP  RH WIND       PRES   REMARKS
BATESVILLE     FAIR      90  74  58 SW7       30.05F HX  98
CLARKSDALE       N/A     93  75  55 W8        30.04F HX 104
CLEVELAND      FAIR      94  71  47 W8        30.04F HX 100
GREENWOOD      MOSUNNY   94  73  50 CALM      30.05F HX 103
GREENVILLE     SUNNY     93  72  50 MISG      30.04F HX 101
OLIVE BRANCH   MOSUNNY  N/A N/A N/A S16       30.00F
OXFORD         FAIR      90  72  55 W7        30.07F HX  96
TUNICA           N/A     91  73  55 SW12      30.03F HX 100
WINONA         FAIR      88  73  60 CALM      30.07F HX  96
$$

MSZ003>006-009-014>017-022>024-029>033-037>039-222000-
NORTHEAST MISSISSIPPI

CITY           SKY/WX    TMP DP  RH WIND       PRES   REMARKS
COLUMBUS AFB   MOSUNNY   91  79  67 S5        30.05F HX 106
STARKVILLE     FAIR      90  73  58 S3        30.07F HX  98
TUPELO         MOSUNNY   94  69  44 VRB5      30.04F HX  99
$$

MSZ040-058-222000-
CENTRAL MISSISSIPPI

CITY           SKY/WX    TMP DP  RH WIND       PRES   REMARKS
JACKSON INTL   MOSUNNY   92  73  53 VRB6      30.08S HX 100
JACKSON HAWKNS PTSUNNY   90  73  57 CALM      30.08F THUNDER HX  98
MADISON        FAIR      88  72  58 CALM      30.08S HX  94
MERIDIAN KEY   CLOUDY    89  73  59 S5        30.09F HX  97
MERIDIAN NAS   CLOUDY    90  74  59 SW7       30.08F HX  99
RAYMOND          N/A     93  86  79 CALM      30.07F HX 125
VICKSBURG VKS  MOCLDY    91  75  59 NE5       30.05F HX 102
$$

MSZ059>079-222000-
SOUTH MISSISSIPPI

CITY           SKY/WX    TMP DP  RH WIND       PRES   REMARKS
COLUMBIA       FAIR      91 N/A N/A CALM      30.09F
HATTIESBURG    MOSUNNY   90  70  51 CALM      30.07F HX  95
LAUREL         FAIR      91  72  53 SE3       30.08F HX  98
MCCOMB         SUNNY     91  69  48 CALM      30.07F HX  96
NATCHEZ        SUNNY     90  72  55 E3        30.07F HX  97
PINE BELT      PTSUNNY   91  74  57 VRB3      30.08F HX 100
$$

MSZ080>082-222000-
COASTAL MISSISSIPPI

CITY           SKY/WX    TMP DP  RH WIND       PRES   REMARKS
BAY ST LOUIS   MOSUNNY   86  77  74 VRB3      30.10  HX  97
BILOXI         CLOUDY    80  75  85 E5        30.07F
PASCAGOULA     LGT RAIN  78  75  90 SE5       30.08F
GULFPORT       CLOUDY    82  77  84 E10       30.06F HX  90
$$

LAZ007>009-015>016-023>026-222000-
NORTHEAST LOUISIANA

CITY           SKY/WX    TMP DP  RH WIND       PRES   REMARKS
BASTROP        FAIR      92  74  54 CALM      30.06F HX 101
TALLULAH/VBURG NOT AVBL
VIDALIA          N/A    N/A N/A N/A MISG      30.05
$$



USA.gov is the U.S. government's official web portal to all federal, state and local government web resources and services.